Wind_Speed
5 4 4 3 2 4 4 7 3 6 7 3 23 12 8 2 5 5 24 29 27 26 25 27 25 23 22 22 21 21 20 18 17 16 15 14 12 11 11 11 11 10 10 10 10 9 8 7 7
4 6 4 1 4 2 6 7 10 9 10 24 23 11 4 4 5 9 29 24 23 23 26 26 25 24 23 22 22 21 21 19 17 16 15 14 13 12 11 11 10 9 10 10 10 9 8 7 6
6 8 2 4 3 8 6 7 6 7 16 12 9 11 6 5 8 33 23 26 27 25 26 25 25 24 24 22 22 22 21 19 17 16 16 15 14 13 12 11 10 10 10 10 10 10 9 9 8
8 5 1 2 11 7 5 1 3 8 17 6 4 8 9 9 18 25 27 26 27 27 26 26 25 24 23 21 21 21 20 19 18 16 16 16 15 14 12 12 11 10 10 10 10 10 11 10 9
11 4 2 5 8 5 2 14 10 6 8 21 21 9 6 10 24 26 28 28 30 29 28 26 24 23 21 20 20 20 20 18 17 17 17 17 16 15 14 13 13 12 10 10 10 11 11 11 9
4 2 1 9 17 3 2 21 17 13 22 25 13 7 6 19 23 31 29 31 31 29 28 26 24 22 21 20 20 20 19 17 17 17 18 17 17 16 15 14 14 12 11 10 10 12 11 11 10
4 3 6 8 4 2 5 14 7 13 18 19 18 7 10 23 25 32 32 32 31 27 27 27 25 23 21 19 19 19 18 17 17 17 18 18 17 16 16 15 15 14 12 12 12 12 11 11 10
4 2 5 6 11 13 9 10 13 9 12 22 17 6 6 27 32 34 35 34 31 28 27 26 24 24 23 21 20 19 18 17 17 17 17 17 18 17 17 16 16 15 14 14 13 12 11 11 9
4 3 17 8 4 5 5 0 5 11 14 20 18 20 19 28 41 36 37 35 33 31 29 27 25 24 23 22 21 20 19 18 18 18 18 18 19 19 19 18 17 18 16 16 15 14 13 11 9
7 5 9 4 8 10 10 16 15 11 16 21 21 25 19 36 45 41 39 39 35 33 31 28 27 25 24 23 22 21 20 21 21 20 20 20 19 19 20 20 19 19 19 17 17 15 15 13 9
7 23 5 10 10 13 4 13 13 10 19 12 20 25 19 37 45 44 42 39 35 33 31 30 28 26 25 24 23 21 21 22 22 21 21 20 20 21 21 22 22 22 23 20 20 19 18 16 12
10 16 12 21 31 27 11 19 13 22 33 17 20 23 10 24 48 47 44 39 36 35 31 30 29 29 28 26 25 24 23 22 23 22 22 22 22 23 23 23 24 25 25 24 22 22 19 18 14
14 11 24 27 31 28 26 20 16 37 53 33 34 35 33 25 35 49 45 39 37 34 32 32 31 31 31 30 29 27 25 23 22 23 23 22 22 23 23 24 24 26 27 25 25 22 21 20 17
16 27 28 34 29 21 16 24 21 57 29 31 25 32 28 28 37 41 43 45 39 32 31 31 31 32 32 32 32 31 28 26 24 24 24 23 22 22 22 23 25 26 27 26 25 24 23 22 20
10 15 18 23 17 14 13 19 24 49 27 33 31 37 32 31 36 41 47 44 38 36 33 30 29 28 31 33 33 33 31 30 28 27 26 24 23 22 22 23 24 26 27 26 25 25 25 24 23
7 6 9 3 10 13 10 23 29 31 25 33 31 35 32 35 35 40 43 46 42 40 38 32 33 34 33 32 32 33 33 32 31 29 27 25 24 23 23 24 24 25 26 26 26 26 26 26 25
4 12 14 23 7 12 11 17 21 20 27 31 33 29 30 37 31 32 28 31 34 38 39 38 35 37 37 36 35 33 34 33 32 31 29 27 25 24 23 24 24 24 26 28 27 27 27 26 26
10 8 11 12 10 11 18 17 20 24 23 27 30 32 36 35 37 40 30 28 28 29 29 31 31 30 35 41 40 37 36 34 33 32 31 29 27 25 23 24 24 25 27 28 28 28 27 26 24
13 15 19 18 18 21 19 22 20 22 18 20 29 30 27 33 35 35 30 32 31 32 35 35 34 33 36 45 45 45 41 36 35 34 32 30 28 26 25 23 25 27 29 30 28 27 27 25 24
16 15 18 20 23 14 17 23 24 14 19 27 23 25 29 32 36 28 22 22 22 22 27 32 33 32 35 40 42 49 45 42 38 35 32 29 30 28 28 26 27 28 29 30 29 28 27 28 27
15 17 20 18 22 14 15 18 20 22 22 29 28 30 30 29 16 13 8 9 10 15 17 18 22 32 34 39 44 50 46 43 38 34 33 32 32 31 30 28 28 29 29 32 30 30 30 27 29
18 12 15 16 15 13 2 11 11 13 18 16 19 7 15 12 15 14 10 10 12 10 7 12 21 28 34 40 41 45 49 47 41 40 38 39 35 34 32 30 30 29 29 30 31 31 31 29 30
16 11 11 20 15 9 17 4 6 9 5 8 14 22 28 23 20 21 16 13 14 12 12 9 15 23 28 29 35 39 42 43 42 43 40 41 36 35 35 33 31 30 31 30 30 28 28 30 31
11 3 7 13 6 5 15 8 5 5 9 14 17 24 26 24 21 21 17 15 15 13 13 11 8 12 17 23 29 33 37 39 40 37 42 41 36 35 36 35 33 31 30 31 29 29 28 30 32
5 3 3 3 1 5 7 7 7 14 16 16 16 22 23 25 23 25 24 22 20 17 13 9 7 5 7 20 25 32 35 36 35 40 47 40 33 36 37 39 37 35 31 30 29 30 32 32 33
7 7 4 3 3 4 8 3 5 15 20 19 23 22 24 27 25 25 26 27 24 21 17 13 7 3 5 9 20 30 36 38 38 38 41 41 36 33 38 40 39 36 32 31 30 30 32 32 33
4 6 10 4 6 2 5 7 14 16 12 15 26 26 28 30 27 27 33 31 27 25 22 18 14 11 10 10 16 21 30 36 41 40 42 42 39 36 36 38 37 38 34 32 33 31 31 29 29
7 1 1 1 3 5 4 6 7 13 15 11 15 20 20 22 27 32 37 36 31 26 23 19 16 15 12 11 11 21 25 31 42 44 43 43 42 40 34 33 37 37 34 33 32 30 26 29 28
2 2 5 3 1 2 2 4 6 11 12 12 11 21 28 26 26 34 40 40 36 31 27 23 20 16 11 10 9 13 22 28 34 41 44 42 43 41 34 31 32 33 33 34 32 30 27 26 27
3 5 4 3 3 2 3 3 4 7 9 13 18 21 24 23 22 36 40 40 40 39 35 31 24 22 18 15 11 7 9 17 21 30 29 39 41 39 34 31 29 30 30 33 32 30 27 27 28
Wind_Direction
254 221 200 212 51 66 243 253 255 271 308 214 322 292 256 248 162 214 156 163 169 164 165 168 171 174 175 175 177 176 175 172 170 169 167 165 156 149 148 148 148 150 149 150 156 158 161 152 148
235 196 178 166 116 186 245 227 225 218 240 303 308 304 257 269 213 168 155 158 165 166 168 170 174 175 176 175 179 179 178 177 175 174 172 169 163 156 159 154 151 153 156 157 159 161 163 163 156
201 181 175 144 184 220 230 235 257 258 269 273 304 332 293 210 211 159 160 158 167 168 168 170 176 176 175 176 179 180 181 180 180 179 176 174 169 164 165 160 155 155 154 159 162 165 162 159 156
178 181 173 166 234 249 221 325 353 321 308 269 309 299 296 231 171 170 162 163 168 168 169 171 174 178 176 179 181 180 181 183 182 181 180 180 176 173 171 169 165 163 162 165 163 155 155 155 153
172 163 228 243 247 258 269 271 277 297 295 291 316 278 277 224 168 170 168 167 169 169 172 173 174 178 176 179 181 181 182 181 184 180 182 183 182 179 178 176 177 173 173 172 163 157 154 152 152
173 147 221 243 242 217 239 255 267 245 270 284 298 263 213 190 177 173 173 172 172 171 173 173 172 171 175 178 181 182 182 181 185 183 183 186 187 186 185 185 185 183 179 171 167 162 157 156 160
168 136 230 263 265 284 229 255 230 248 265 264 273 270 261 201 187 176 177 173 174 178 174 171 170 168 174 180 182 184 184 184 186 187 185 188 189 192 192 192 192 192 188 178 172 169 163 160 173
241 147 261 216 256 268 240 241 265 228 258 286 286 262 217 204 191 182 176 176 179 180 177 174 171 173 176 181 185 187 188 188 188 190 190 190 192 195 199 199 198 199 196 186 179 179 173 170 169
213 269 253 241 201 257 284 215 351 286 272 284 296 294 265 209 187 183 176 178 181 183 181 179 178 179 181 184 186 190 192 192 192 193 196 197 198 197 202 205 205 205 203 195 189 186 179 183 193
194 222 249 236 247 253 293 275 290 306 295 291 299 303 282 196 184 184 181 182 183 185 186 186 185 185 186 188 190 193 197 197 198 200 201 203 204 203 206 208 210 211 211 204 200 198 195 194 209
232 243 0 271 270 294 302 322 309 305 278 269 289 318 218 192 188 189 189 190 191 192 189 193 193 193 194 194 196 199 203 205 204 205 207 207 206 207 207 208 209 215 214 211 207 208 207 213 224
279 269 263 279 286 291 299 301 306 291 269 287 293 297 268 216 194 195 194 195 197 197 199 200 202 203 204 203 205 205 207 209 211 210 211 211 210 210 211 212 213 217 219 218 217 218 218 221 232
258 280 277 288 285 288 298 281 272 267 273 280 278 280 284 250 216 201 201 200 205 203 205 208 209 211 213 212 212 213 213 214 216 217 216 217 218 216 214 217 216 220 224 225 225 224 227 229 236
299 304 294 291 284 287 283 279 265 261 279 279 275 273 275 275 223 208 206 205 207 211 217 217 217 221 221 221 219 220 219 220 219 221 223 223 224 222 218 219 219 221 226 230 232 233 235 237 240
293 306 304 283 289 266 287 276 243 267 271 278 263 268 271 268 234 222 213 214 215 221 222 224 225 227 229 229 228 225 224 223 222 221 223 225 225 224 223 222 222 224 228 231 232 234 240 241 241
302 289 299 336 334 308 219 259 274 275 272 266 268 261 261 264 255 233 232 229 224 224 225 229 229 231 230 230 231 230 226 225 224 222 219 221 222 223 224 223 223 226 227 230 232 234 238 238 241
187 268 276 295 285 274 274 274 276 295 261 257 265 262 256 256 244 229 222 221 227 229 233 235 237 238 236 234 232 228 227 225 226 221 221 221 222 223 226 228 225 224 227 230 231 233 236 238 238
259 250 266 268 289 310 299 284 289 292 275 264 259 250 247 243 252 244 237 234 235 233 238 240 238 234 237 238 234 231 230 227 227 224 226 223 223 226 228 230 229 226 227 230 232 233 234 238 238
268 264 266 266 264 273 271 288 283 292 285 276 263 255 251 256 254 253 249 249 245 243 243 241 237 238 232 234 235 232 231 232 229 228 228 227 228 229 231 230 228 227 229 229 230 236 238 238 242
265 264 267 275 266 274 269 265 271 282 279 279 270 270 252 254 267 254 251 249 250 246 244 240 234 236 233 229 234 237 234 231 233 232 230 228 233 234 233 234 231 227 226 226 228 231 238 241 241
262 254 261 266 289 278 268 275 278 277 268 266 265 255 263 259 235 255 296 271 254 241 237 228 225 228 238 235 232 232 233 230 232 235 240 233 235 236 234 236 234 229 229 225 226 226 234 243 242
259 262 275 281 292 276 329 294 281 282 273 278 264 82 66 92 127 132 150 109 113 114 161 200 209 215 226 229 229 233 234 229 229 234 235 237 232 234 234 236 237 233 231 229 230 232 235 235 243
257 254 244 265 266 268 268 254 274 260 291 55 57 67 65 72 83 93 98 83 89 89 104 135 184 201 214 215 227 233 237 241 235 231 233 237 234 232 232 234 234 233 231 232 232 234 237 239 243
249 247 259 243 244 246 257 212 295 46 358 70 47 36 50 54 56 67 71 68 70 73 87 102 132 191 204 207 213 229 238 237 241 241 243 238 236 236 233 234 233 233 233 232 233 233 236 240 244
205 101 303 335 43 247 222 187 276 72 60 45 47 31 33 40 32 42 47 53 51 50 60 69 88 126 188 214 216 218 230 237 239 233 238 249 243 243 243 238 232 233 234 234 234 235 236 241 246
202 174 195 258 221 258 157 213 49 51 46 53 54 41 36 35 29 29 30 41 41 40 41 37 13 322 238 230 229 226 226 231 231 234 235 246 253 257 252 242 238 238 239 236 232 235 240 244 249
265 197 218 279 289 329 171 120 65 27 29 24 43 30 30 31 25 28 33 37 35 36 35 30 16 3 336 272 251 241 237 231 234 232 236 242 248 255 254 248 244 242 239 236 230 235 241 245 244
203 286 88 295 240 232 85 46 15 16 17 9 39 35 23 24 23 31 37 36 36 34 36 36 24 11 348 318 277 248 245 240 240 237 238 242 246 250 249 246 245 246 240 232 229 233 245 247 240
138 294 211 185 128 324 16 75 25 5 21 15 24 37 24 20 19 34 40 41 38 36 33 33 26 15 357 336 323 271 242 238 239 241 242 244 245 248 245 239 243 244 237 233 228 233 242 250 237
207 225 170 132 256 70 113 91 34 36 24 24 28 29 36 22 19 42 43 43 41 39 37 35 31 23 11 4 1 331 284 237 246 251 251 246 249 249 246 237 237 240 234 231 227 231 239 245 236
Height
1500 1500 1501 1503 1513 1518 1521 1508 1491 1487 1480 1471 1472 1474 1473 1466 1465 1480 1460 1465 1468 1471 1475 1480 1483 1487 1489 1492 1496 1498 1499 1501 1503 1505 1507 1509 1511 1513 1515 1515 1517 1518 1519 1521 1522 1525 1526 1527 1529
1499 1501 1502 1502 1518 1524 1515 1492 1486 1478 1473 1471 1468 1464 1465 1464 1463 1461 1461 1464 1467 1469 1473 1478 1483 1485 1488 1490 1494 1497 1499 1500 1503 1505 1508 1509 1511 1513 1515 1516 1518 1519 1520 1522 1523 1525 1526 1528 1529
1498 1500 1502 1505 1517 1510 1504 1485 1479 1474 1473 1473 1471 1465 1464 1461 1461 1460 1462 1463 1468 1470 1472 1476 1481 1484 1486 1489 1492 1495 1497 1499 1502 1505 1508 1510 1511 1513 1515 1517 1519 1520 1521 1522 1523 1524 1526 1528 1529
1498 1501 1503 1508 1501 1497 1489 1480 1477 1475 1471 1468 1470 1467 1465 1461 1458 1461 1462 1465 1468 1470 1473 1475 1480 1484 1486 1489 1491 1493 1496 1499 1501 1504 1507 1510 1511 1513 1515 1517 1519 1520 1522 1523 1524 1525 1526 1528 1530
1497 1497 1506 1506 1495 1488 1482 1478 1478 1478 1475 1468 1470 1465 1462 1460 1458 1460 1461 1464 1466 1469 1473 1475 1478 1482 1485 1488 1491 1492 1495 1497 1500 1502 1507 1510 1512 1513 1515 1517 1519 1520 1522 1524 1525 1526 1527 1529 1531
1497 1498 1510 1497 1478 1478 1477 1475 1475 1474 1470 1468 1469 1463 1458 1457 1456 1458 1461 1463 1466 1468 1471 1473 1476 1480 1484 1487 1490 1492 1493 1495 1499 1501 1504 1509 1511 1513 1515 1517 1518 1520 1522 1524 1525 1527 1528 1529 1531
1495 1500 1495 1485 1480 1479 1475 1469 1468 1469 1466 1464 1466 1461 1459 1457 1456 1456 1459 1463 1467 1470 1471 1472 1475 1478 1483 1487 1489 1491 1493 1495 1497 1501 1502 1507 1510 1513 1515 1516 1518 1520 1522 1524 1525 1527 1528 1530 1531
1494 1495 1490 1480 1478 1474 1470 1467 1467 1464 1460 1463 1462 1456 1453 1454 1455 1454 1457 1462 1466 1468 1470 1472 1474 1477 1480 1484 1488 1491 1493 1494 1496 1499 1502 1504 1507 1511 1514 1516 1517 1519 1521 1523 1525 1527 1529 1530 1532
1492 1497 1472 1477 1479 1472 1468 1469 1466 1463 1461 1458 1461 1459 1453 1448 1452 1455 1456 1459 1463 1466 1468 1470 1472 1476 1479 1482 1486 1490 1492 1494 1495 1497 1500 1502 1505 1508 1511 1514 1516 1517 1520 1521 1523 1526 1529 1530 1532
1490 1491 1467 1472 1469 1467 1467 1468 1468 1468 1461 1457 1455 1455 1451 1446 1447 1451 1454 1455 1458 1461 1464 1468 1470 1474 1477 1481 1484 1487 1490 1492 1494 1495 1497 1500 1503 1505 1508 1512 1514 1516 1518 1520 1522 1524 1526 1528 1530
1481 1463 1472 1467 1467 1465 1466 1468 1471 1468 1454 1458 1456 1454 1453 1449 1446 1447 1450 1451 1452 1456 1461 1464 1468 1472 1475 1478 1482 1484 1487 1489 1492 1494 1496 1498 1500 1503 1505 1508 1511 1514 1516 1518 1520 1521 1522 1526 1528
1482 1468 1472 1468 1465 1464 1466 1467 1470 1467 1444 1455 1455 1455 1455 1456 1444 1446 1447 1450 1452 1454 1457 1461 1465 1468 1472 1475 1479 1481 1484 1486 1489 1491 1494 1495 1497 1500 1502 1504 1508 1511 1513 1515 1517 1519 1521 1523 1526
1474 1472 1469 1468 1467 1465 1467 1461 1465 1449 1440 1454 1454 1450 1450 1453 1452 1446 1446 1447 1449 1452 1455 1458 1461 1465 1467 1471 1475 1478 1480 1483 1486 1489 1490 1493 1494 1496 1499 1502 1505 1508 1511 1513 1515 1517 1519 1520 1523
1476 1470 1466 1462 1460 1467 1466 1455 1461 1416 1451 1449 1449 1446 1445 1445 1448 1448 1448 1446 1447 1451 1454 1456 1459 1461 1464 1467 1470 1474 1477 1479 1482 1486 1488 1489 1492 1493 1496 1499 1501 1504 1507 1510 1512 1515 1516 1518 1520
1477 1472 1465 1453 1460 1457 1464 1451 1440 1425 1447 1445 1441 1441 1441 1441 1442 1443 1444 1445 1446 1448 1451 1452 1455 1458 1461 1463 1466 1469 1473 1475 1478 1481 1484 1486 1488 1490 1492 1495 1497 1501 1504 1507 1509 1511 1513 1515 1516
1478 1475 1469 1453 1457 1454 1455 1445 1425 1439 1441 1436 1434 1434 1433 1434 1435 1437 1439 1441 1443 1445 1447 1449 1451 1454 1457 1459 1462 1465 1468 1471 1473 1477 1480 1483 1485 1487 1489 1491 1494 1498 1501 1503 1505 1507 1509 1511 1513
1478 1477 1471 1453 1457 1453 1451 1445 1427 1431 1432 1428 1426 1426 1426 1426 1424 1431 1432 1435 1437 1440 1443 1445 1446 1449 1453 1455 1457 1460 1463 1466 1469 1473 1476 1479 1482 1483 1485 1487 1490 1494 1497 1499 1501 1503 1505 1507 1509
1472 1473 1469 1465 1451 1454 1446 1440 1429 1427 1427 1420 1417 1417 1416 1419 1416 1425 1428 1429 1431 1432 1433 1435 1439 1443 1446 1449 1454 1456 1459 1463 1466 1468 1471 1474 1477 1479 1481 1483 1486 1489 1493 1495 1497 1499 1501 1504 1506
1464 1464 1461 1454 1449 1449 1447 1440 1431 1422 1420 1414 1411 1410 1410 1409 1412 1420 1421 1422 1423 1425 1425 1426 1430 1436 1438 1441 1445 1449 1451 1457 1460 1464 1467 1470 1473 1475 1477 1479 1482 1484 1487 1490 1494 1497 1498 1500 1503
1460 1459 1455 1447 1441 1446 1439 1429 1421 1418 1415 1410 1406 1404 1404 1403 1403 1410 1411 1413 1414 1413 1416 1419 1424 1428 1430 1432 1437 1440 1444 1448 1454 1458 1463 1467 1469 1471 1472 1474 1477 1479 1483 1486 1489 1492 1495 1496 1498
1455 1453 1448 1450 1437 1436 1434 1427 1418 1408 1406 1400 1396 1396 1398 1399 1400 1400 1403 1404 1403 1405 1407 1410 1416 1421 1424 1428 1430 1433 1438 1442 1449 1454 1457 1460 1464 1466 1468 1470 1472 1474 1477 1480 1484 1487 1490 1491 1493
1450 1445 1444 1443 1444 1441 1427 1429 1412 1404 1397 1393 1389 1393 1394 1398 1397 1397 1404 1407 1404 1405 1403 1404 1407 1412 1417 1422 1425 1429 1430 1433 1441 1446 1450 1453 1457 1461 1464 1465 1468 1470 1472 1475 1478 1481 1484 1487 1488
1438 1440 1435 1442 1440 1437 1425 1433 1409 1399 1397 1397 1400 1399 1397 1402 1402 1398 1403 1407 1403 1404 1400 1400 1403 1406 1411 1416 1420 1425 1429 1433 1436 1440 1444 1446 1451 1453 1457 1460 1462 1464 1466 1469 1472 1476 1479 1482 1483
1436 1435 1435 1433 1434 1445 1421 1423 1409 1408 1406 1407 1410 1412 1406 1406 1407 1404 1405 1405 1401 1401 1399 1401 1402 1404 1407 1412 1416 1420 1424 1427 1432 1438 1440 1440 1445 1449 1452 1454 1456 1458 1460 1463 1467 1470 1473 1476 1477
1435 1435 1447 1451 1447 1428 1404 1414 1408 1415 1419 1421 1417 1419 1416 1411 1413 1407 1407 1404 1402 1400 1399 1399 1401 1404 1406 1408 1411 1415 1417 1422 1427 1429 1431 1422 1438 1443 1444 1447 1449 1451 1453 1457 1461 1465 1467 1470 1471
1430 1432 1438 1430 1422 1411 1401 1413 1421 1427 1427 1426 1423 1424 1420 1416 1415 1412 1409 1403 1403 1401 1399 1397 1398 1401 1403 1406 1408 1409 1413 1415 1419 1424 1426 1428 1432 1436 1438 1440 1443 1445 1448 1451 1455 1458 1461 1463 1465
1423 1427 1419 1427 1413 1420 1406 1416 1424 1432 1432 1422 1421 1425 1422 1419 1422 1417 1409 1405 1403 1401 1398 1398 1398 1400 1401 1402 1403 1405 1407 1408 1411 1416 1419 1422 1426 1429 1431 1434 1437 1439 1441 1445 1449 1451 1454 1456 1458
1415 1419 1427 1430 1417 1420 1410 1419 1432 1438 1438 1436 1430 1431 1434 1431 1426 1419 1412 1409 1406 1404 1401 1399 1398 1398 1399 1399 1398 1399 1399 1401 1404 1407 1412 1415 1419 1422 1425 1428 1429 1431 1435 1438 1442 1445 1449 1451 1453
1416 1420 1419 1411 1411 1417 1414 1437 1452 1449 1445 1444 1441 1433 1429 1431 1431 1422 1415 1413 1408 1405 1401 1398 1398 1398 1399 1398 1395 1394 1392 1393 1396 1398 1403 1408 1412 1416 1420 1422 1423 1424 1427 1431 1436 1439 1443 1446 1447
1413 1410 1409 1423 1415 1414 1425 1449 1457 1458 1456 1451 1447 1444 1440 1438 1440 1427 1422 1420 1416 1414 1408 1402 1400 1400 1399 1396 1393 1391 1388 1388 1391 1392 1397 1401 1404 1408 1413 1417 1418 1418 1420 1424 1429 1434 1437 1440 1442